WAT4855 PAFA-PANC

Flight info

Callsign WAT4855
Flight time 0h 45m
Altitude 31000
Route PUYVO5 PUYVO KROTO5
Aircraft B738/M-SDE2E3FGHIRWXY/LB1

Departure

Time 2026-04-20 23:20
Airport Fairbanks International Airport (PAFA)

Arrival

Time 2026-04-21 00:05
Airport Ted Stevens Anchorage International Airport (PANC)
Time Latitude Longitude Altitude Speed Heading
2026-04-20 22:56 64.81732 -147.86618 435 ft 0 kts 325°
2026-04-20 23:06 64.81728 -147.86610 425 ft 4 kts 326°
2026-04-20 23:06 64.81705 -147.86577 429 ft 4 kts 319°
2026-04-20 23:06 64.81684 -147.86543 424 ft 4 kts 334°
2026-04-20 23:07 64.81660 -147.86520 424 ft 2 kts 341°
2026-04-20 23:07 64.81659 -147.86520 424 ft 1 kts 341°
2026-04-20 23:09 64.81662 -147.86516 423 ft 1 kts 14°
2026-04-20 23:10 64.81665 -147.86509 431 ft 0 kts 34°
2026-04-20 23:12 64.81685 -147.86476 432 ft 9 kts 36°
2026-04-20 23:12 64.81745 -147.86365 433 ft 12 kts 40°
2026-04-20 23:12 64.81760 -147.86187 432 ft 11 kts 71°
2026-04-20 23:13 64.81818 -147.86062 432 ft 13 kts 37°
2026-04-20 23:13 64.81910 -147.85893 435 ft 20 kts 39°
2026-04-20 23:13 64.82020 -147.85690 428 ft 22 kts 38°
2026-04-20 23:13 64.82160 -147.85435 432 ft 27 kts 39°
2026-04-20 23:14 64.82301 -147.85172 422 ft 25 kts 38°
2026-04-20 23:14 64.82437 -147.84928 433 ft 25 kts 37°
2026-04-20 23:14 64.82577 -147.84668 423 ft 25 kts 38°
2026-04-20 23:14 64.82707 -147.84428 426 ft 23 kts 37°
2026-04-20 23:15 64.82795 -147.84266 431 ft 10 kts 38°
2026-04-20 23:15 64.82841 -147.84169 433 ft 7 kts 59°
2026-04-20 23:15 64.82842 -147.84161 435 ft 0 kts 66°
2026-04-20 23:19 64.82844 -147.84148 435 ft 3 kts 76°
2026-04-20 23:19 64.82833 -147.84044 435 ft 9 kts 121°
2026-04-20 23:19 64.82791 -147.83952 433 ft 9 kts 172°
2026-04-20 23:19 64.82734 -147.84045 432 ft 20 kts 220°
2026-04-20 23:20 64.82436 -147.84593 433 ft 88 kts 217°
2026-04-20 23:20 64.81786 -147.85783 442 ft 145 kts 216°
2026-04-20 23:20 64.80948 -147.87321 897 ft 159 kts 217°
2026-04-20 23:20 64.80046 -147.88996 1439 ft 172 kts 219°
2026-04-20 23:21 64.79083 -147.90832 2078 ft 192 kts 219°
2026-04-20 23:21 64.78171 -147.93335 2459 ft 217 kts 246°
2026-04-20 23:21 64.77642 -147.96657 3350 ft 217 kts 247°
2026-04-20 23:21 64.77050 -147.99969 4142 ft 227 kts 246°
2026-04-20 23:22 64.76402 -148.03474 4853 ft 238 kts 246°
2026-04-20 23:22 64.75740 -148.06977 5950 ft 234 kts 246°
2026-04-20 23:22 64.75069 -148.10498 6826 ft 239 kts 246°
2026-04-20 23:22 64.74389 -148.14049 7791 ft 240 kts 246°
2026-04-20 23:23 64.73702 -148.17619 8713 ft 241 kts 246°
2026-04-20 23:23 64.73008 -148.21208 9645 ft 243 kts 246°
2026-04-20 23:23 64.72304 -148.24830 10439 ft 247 kts 245°
2026-04-20 23:23 64.71595 -148.28467 11205 ft 251 kts 244°
2026-04-20 23:24 64.70840 -148.32294 11616 ft 271 kts 241°
2026-04-20 23:24 64.69626 -148.35859 11816 ft 294 kts 219°
2026-04-20 23:24 64.67882 -148.38731 12302 ft 308 kts 214°
2026-04-20 23:24 64.66072 -148.41493 13080 ft 312 kts 213°
2026-04-20 23:25 64.64244 -148.44254 13917 ft 314 kts 213°
2026-04-20 23:25 64.62398 -148.47045 14595 ft 319 kts 213°
2026-04-20 23:25 64.60516 -148.49903 15239 ft 325 kts 214°
2026-04-20 23:25 64.58607 -148.52811 15912 ft 330 kts 214°
2026-04-20 23:26 64.56674 -148.55762 16583 ft 335 kts 215°
2026-04-20 23:26 64.54712 -148.58756 17230 ft 339 kts 215°
2026-04-20 23:26 64.52728 -148.61784 17802 ft 344 kts 216°
2026-04-20 23:26 64.50736 -148.64821 18291 ft 350 kts 216°
2026-04-20 23:27 64.48689 -148.67936 18828 ft 354 kts 216°
2026-04-20 23:27 64.46624 -148.71072 19376 ft 356 kts 216°
2026-04-20 23:27 64.44533 -148.74244 19897 ft 360 kts 216°
2026-04-20 23:27 64.42420 -148.77441 20407 ft 364 kts 216°
2026-04-20 23:28 64.40290 -148.80660 20912 ft 368 kts 216°
2026-04-20 23:28 64.38136 -148.83909 21421 ft 371 kts 216°
2026-04-20 23:28 64.35964 -148.87181 21919 ft 376 kts 216°
2026-04-20 23:28 64.33759 -148.90493 22493 ft 380 kts 215°
2026-04-20 23:29 64.31534 -148.93828 23067 ft 383 kts 215°
2026-04-20 23:29 64.29293 -148.97206 23559 ft 387 kts 216°
2026-04-20 23:29 64.27034 -149.00636 23995 ft 391 kts 216°
2026-04-20 23:29 64.24755 -149.04100 24422 ft 394 kts 216°
2026-04-20 23:30 64.22456 -149.07585 24855 ft 397 kts 216°
2026-04-20 23:30 64.20135 -149.11097 25281 ft 401 kts 215°
2026-04-20 23:30 64.17796 -149.14626 25689 ft 405 kts 215°
2026-04-20 23:30 64.15434 -149.18180 26171 ft 406 kts 215°
2026-04-20 23:31 64.13074 -149.21722 26763 ft 405 kts 215°
2026-04-20 23:31 64.10717 -149.25256 27333 ft 404 kts 215°
2026-04-20 23:31 64.08361 -149.28778 27856 ft 405 kts 215°
2026-04-20 23:31 64.06002 -149.32175 28677 ft 398 kts 210°
2026-04-20 23:32 64.03392 -149.34216 29381 ft 398 kts 194°
2026-04-20 23:32 64.00680 -149.35438 29942 ft 397 kts 193°
2026-04-20 23:32 63.97958 -149.36629 30240 ft 401 kts 193°
2026-04-20 23:32 63.95204 -149.37846 30483 ft 405 kts 193°
2026-04-20 23:33 63.92423 -149.39097 30737 ft 410 kts 194°
2026-04-20 23:33 63.89640 -149.40367 30770 ft 418 kts 194°
2026-04-20 23:33 63.83840 -149.43046 30795 ft 434 kts 194°
2026-04-20 23:34 63.77798 -149.45840 30796 ft 452 kts 194°
2026-04-20 23:34 63.71512 -149.48731 30799 ft 468 kts 194°
2026-04-20 23:35 63.61908 -149.53113 30764 ft 455 kts 194°
2026-04-20 23:35 63.58860 -149.54493 30773 ft 439 kts 194°
2026-04-20 23:36 63.55923 -149.55818 30768 ft 423 kts 194°
2026-04-20 23:36 63.53085 -149.57097 30774 ft 409 kts 194°
2026-04-20 23:36 63.50319 -149.58345 30785 ft 404 kts 194°
2026-04-20 23:37 63.44757 -149.60864 30799 ft 412 kts 194°
2026-04-20 23:37 63.39096 -149.63415 30813 ft 415 kts 194°
2026-04-20 23:38 63.33438 -149.65942 30794 ft 414 kts 194°
2026-04-20 23:38 63.27798 -149.68448 30805 ft 413 kts 194°
2026-04-20 23:39 63.22195 -149.70945 30789 ft 402 kts 194°
2026-04-20 23:39 63.19482 -149.72137 30507 ft 396 kts 194°
2026-04-20 23:39 63.16811 -149.73308 30346 ft 387 kts 194°
2026-04-20 23:39 63.14195 -149.74457 30091 ft 383 kts 194°
2026-04-20 23:40 63.11624 -149.75585 29843 ft 378 kts 194°
2026-04-20 23:40 63.09054 -149.76714 29442 ft 375 kts 194°
2026-04-20 23:40 63.06508 -149.77830 29085 ft 371 kts 194°
2026-04-20 23:40 63.03991 -149.78930 28730 ft 367 kts 194°
2026-04-20 23:41 63.01496 -149.80020 28346 ft 364 kts 195°
2026-04-20 23:41 62.99027 -149.81097 28033 ft 359 kts 195°
2026-04-20 23:41 62.96584 -149.82161 27664 ft 357 kts 195°
2026-04-20 23:41 62.94165 -149.83214 27330 ft 353 kts 195°
2026-04-20 23:42 62.91762 -149.84255 26953 ft 351 kts 194°
2026-04-20 23:42 62.89378 -149.85290 26639 ft 347 kts 195°
2026-04-20 23:42 62.87015 -149.86313 26289 ft 345 kts 195°
2026-04-20 23:42 62.84669 -149.87326 25949 ft 343 kts 194°
2026-04-20 23:43 62.82338 -149.88324 25615 ft 340 kts 194°
2026-04-20 23:43 62.80020 -149.89316 25283 ft 338 kts 194°
2026-04-20 23:43 62.77716 -149.90307 24948 ft 336 kts 195°
2026-04-20 23:43 62.75427 -149.91290 24623 ft 334 kts 195°
2026-04-20 23:44 62.73150 -149.92264 24304 ft 332 kts 194°
2026-04-20 23:44 62.70885 -149.93231 23978 ft 331 kts 194°
2026-04-20 23:44 62.68633 -149.94189 23640 ft 329 kts 194°
2026-04-20 23:44 62.66385 -149.95150 23301 ft 328 kts 194°
2026-04-20 23:45 62.64150 -149.96103 22921 ft 326 kts 194°
2026-04-20 23:45 62.61935 -149.97045 22601 ft 323 kts 194°
2026-04-20 23:45 62.59734 -149.97978 22271 ft 321 kts 194°
2026-04-20 23:45 62.57580 -149.98890 21972 ft 318 kts 194°
2026-04-20 23:46 62.55414 -149.99806 21646 ft 315 kts 194°
2026-04-20 23:46 62.53245 -150.00721 21324 ft 313 kts 194°
2026-04-20 23:46 62.51137 -150.01610 21017 ft 311 kts 194°
2026-04-20 23:46 62.49025 -150.02503 20723 ft 308 kts 195°
2026-04-20 23:47 62.46925 -150.03385 20400 ft 307 kts 194°
2026-04-20 23:47 62.44837 -150.04260 20108 ft 304 kts 194°
2026-04-20 23:47 62.42768 -150.05127 19792 ft 303 kts 195°
2026-04-20 23:47 62.40706 -150.05990 19479 ft 301 kts 195°
2026-04-20 23:48 62.38661 -150.06845 19189 ft 299 kts 195°
2026-04-20 23:48 62.36626 -150.07696 18884 ft 297 kts 194°
2026-04-20 23:48 62.34605 -150.08540 18591 ft 295 kts 194°
2026-04-20 23:48 62.32592 -150.09378 18306 ft 294 kts 194°
2026-04-20 23:49 62.30598 -150.10205 18116 ft 290 kts 194°
2026-04-20 23:49 62.28613 -150.10988 17875 ft 290 kts 193°
2026-04-20 23:49 62.26616 -150.11661 17594 ft 292 kts 192°
2026-04-20 23:49 62.24579 -150.12317 17307 ft 301 kts 192°
2026-04-20 23:50 62.22495 -150.12984 16973 ft 303 kts 192°
2026-04-20 23:50 62.20417 -150.13652 16677 ft 301 kts 192°
2026-04-20 23:50 62.18353 -150.14317 16367 ft 299 kts 192°
2026-04-20 23:50 62.16304 -150.14979 16056 ft 297 kts 192°
2026-04-20 23:51 62.14269 -150.15638 15754 ft 295 kts 192°
2026-04-20 23:51 62.12247 -150.16292 15452 ft 293 kts 192°
2026-04-20 23:51 62.10233 -150.16939 15157 ft 292 kts 192°
2026-04-20 23:51 62.08227 -150.17587 14863 ft 292 kts 192°
2026-04-20 23:52 62.06221 -150.18237 14556 ft 292 kts 192°
2026-04-20 23:52 62.04208 -150.18889 14256 ft 293 kts 191°
2026-04-20 23:52 62.02196 -150.19540 13950 ft 292 kts 191°
2026-04-20 23:52 62.00190 -150.20185 13650 ft 291 kts 191°
2026-04-20 23:53 61.98193 -150.20828 13331 ft 290 kts 191°
2026-04-20 23:53 61.96209 -150.21470 13020 ft 288 kts 191°
2026-04-20 23:53 61.94263 -150.22100 12736 ft 285 kts 191°
2026-04-20 23:53 61.92310 -150.22728 12427 ft 283 kts 191°
2026-04-20 23:54 61.90345 -150.23359 12145 ft 281 kts 190°
2026-04-20 23:54 61.88441 -150.23967 11848 ft 279 kts 191°
2026-04-20 23:54 61.86526 -150.24578 11553 ft 278 kts 191°
2026-04-20 23:54 61.84622 -150.25184 11270 ft 277 kts 190°
2026-04-20 23:55 61.82721 -150.25794 10968 ft 277 kts 191°
2026-04-20 23:55 61.80818 -150.26407 10679 ft 275 kts 191°
2026-04-20 23:55 61.78926 -150.27008 10385 ft 274 kts 191°
2026-04-20 23:55 61.77041 -150.27607 10093 ft 273 kts 191°
2026-04-20 23:56 61.75172 -150.28198 9781 ft 268 kts 191°
2026-04-20 23:56 61.73336 -150.28778 9461 ft 266 kts 191°
2026-04-20 23:56 61.71512 -150.29358 9185 ft 264 kts 190°
2026-04-20 23:56 61.69695 -150.29749 8879 ft 264 kts 178°
2026-04-20 23:57 61.67896 -150.28905 8568 ft 266 kts 166°
2026-04-20 23:57 61.66111 -150.27838 8189 ft 267 kts 167°
2026-04-20 23:57 61.64336 -150.26796 7827 ft 261 kts 167°
2026-04-20 23:57 61.62602 -150.25788 7490 ft 257 kts 167°
2026-04-20 23:58 61.60888 -150.24799 7150 ft 254 kts 167°
2026-04-20 23:58 61.59195 -150.23828 6822 ft 252 kts 167°
2026-04-20 23:58 61.57495 -150.22857 6500 ft 254 kts 168°
2026-04-20 23:58 61.55789 -150.21885 6158 ft 253 kts 167°
2026-04-20 23:59 61.54103 -150.20894 5807 ft 251 kts 165°
2026-04-20 23:59 61.52434 -150.19770 5476 ft 252 kts 165°
2026-04-20 23:59 61.50765 -150.18722 5144 ft 249 kts 166°
2026-04-20 23:59 61.49102 -150.17753 4839 ft 246 kts 167°
2026-04-21 00:00 61.47456 -150.16825 4563 ft 244 kts 167°
2026-04-21 00:00 61.45826 -150.15910 4282 ft 242 kts 167°
2026-04-21 00:00 61.44199 -150.15007 4008 ft 242 kts 167°
2026-04-21 00:00 61.42573 -150.14101 3731 ft 242 kts 166°
2026-04-21 00:01 61.40953 -150.13195 3457 ft 241 kts 166°
2026-04-21 00:01 61.39333 -150.12288 3192 ft 241 kts 166°
2026-04-21 00:01 61.37714 -150.11383 3015 ft 238 kts 166°
2026-04-21 00:01 61.36145 -150.10504 2995 ft 229 kts 167°
2026-04-21 00:02 61.34632 -150.09657 2974 ft 222 kts 167°
2026-04-21 00:02 61.33166 -150.08836 2977 ft 214 kts 167°
2026-04-21 00:02 61.31737 -150.08038 2814 ft 213 kts 167°
2026-04-21 00:02 61.30294 -150.07232 2547 ft 216 kts 167°
2026-04-21 00:03 61.28846 -150.06421 2206 ft 213 kts 167°
2026-04-21 00:03 61.27450 -150.05639 1892 ft 208 kts 166°
2026-04-21 00:03 61.26084 -150.04875 1561 ft 193 kts 166°
2026-04-21 00:03 61.24858 -150.04188 1302 ft 177 kts 165°
2026-04-21 00:04 61.23731 -150.03558 1043 ft 159 kts 166°
2026-04-21 00:04 61.22723 -150.02994 797 ft 142 kts 164°
2026-04-21 00:04 61.21791 -150.02471 571 ft 138 kts 164°
2026-04-21 00:04 61.20873 -150.01960 375 ft 135 kts 164°
2026-04-21 00:05 61.19980 -150.01444 218 ft 130 kts 166°
2026-04-21 00:05 61.19138 -150.00979 143 ft 114 kts 166°
2026-04-21 00:05 61.18520 -150.00640 128 ft 70 kts 164°
2026-04-21 00:05 61.18194 -150.00456 124 ft 27 kts 165°
2026-04-21 00:06 61.18031 -150.00358 122 ft 23 kts 160°
2026-04-21 00:06 61.17890 -150.00207 119 ft 23 kts 144°
2026-04-21 00:06 61.17790 -149.99991 120 ft 11 kts 110°
2026-04-21 00:06 61.17777 -149.99896 117 ft 6 kts 114°
2026-04-21 00:07 61.17746 -149.99849 115 ft 7 kts 159°
2026-04-21 00:07 61.17687 -149.99818 117 ft 9 kts 166°
2026-04-21 00:07 61.17626 -149.99786 117 ft 10 kts 165°
2026-04-21 00:07 61.17543 -149.99739 115 ft 14 kts 164°
2026-04-21 00:08 61.17437 -149.99680 117 ft 17 kts 167°
2026-04-21 00:08 61.17323 -149.99615 120 ft 17 kts 162°
2026-04-21 00:08 61.17250 -149.99575 120 ft 16 kts 166°
2026-04-21 00:08 61.17146 -149.99505 130 ft 16 kts 141°
2026-04-21 00:09 61.17126 -149.99296 116 ft 16 kts 89°
2026-04-21 00:09 61.17125 -149.99073 116 ft 15 kts 91°
2026-04-21 00:09 61.17116 -149.98788 114 ft 14 kts 92°
2026-04-21 00:09 61.17117 -149.98653 115 ft 14 kts 90°
2026-04-21 00:10 61.17117 -149.98460 114 ft 11 kts 89°
2026-04-21 00:10 61.17153 -149.98393 110 ft 7 kts 360°
2026-04-21 00:10 61.17202 -149.98396 109 ft 7 kts 358°
2026-04-21 00:10 61.17217 -149.98397 109 ft 1 kts 358°